Location: Mesa Verde
(33.6055°N, 114.7275°W)
Time: 21:06:42
(UTC+00:00)

N. Korean satellite - Pass Details

Date: 06 October 2021
Orbit: 450 x 495 km, 97.3° (Epoch: 25 October)

Event Time Altitude Azimuth Distance (km) Brightness Sun altitude
Rises 12:31:12 0° 18° (NNE) 2,568 10.5 -14.5°
Reaches altitude 10° 12:33:20 10° 25° (NNE) 1,687 9.7 -14.1°
Maximum altitude 12:36:50 46° 99° (E) 673 7.8 -13.4°
Drops below altitude 10° 12:40:20 10° 174° (S) 1,685 9.4 -12.6°
Sets 12:42:28 0° 180° (S) 2,564 10.2 -12.2°
